Location: Unspecified
(0.0000°N, 0.0000°E)
Time: 19:25:45
(UTC+00:00)

Tiros 1 - Pass Details

Date: 24 October 2021
Orbit: 630 x 664 km, 48.4° (Epoch: 04 December)

Event Time Altitude Azimuth Distance (km) Brightness Sun altitude
Rises 17:38:36 0° 348° (NNW) 2,905 10.5 1.4°
Reaches altitude 10° 17:41:35 10° 7° (N) 1,997 9.5 0.6°
Maximum altitude 17:44:41 18° 50° (NE) 1,547 8.6 -0.1°
Drops below altitude 10° 17:47:47 10° 93° (E) 1,998 9.1 -0.9°
Sets 17:50:44 0° 112° (ESE) 2,907 10.0 -1.6°
